Location: Vista Encantada
(35.1109°N, 106.5681°W)
Time: 22:00:58
(UTC+00:00)

X-37B - Pass Details

Date: 22 September 2021
Orbit: 385 x 389 km, 45.0° (Epoch: 17 October)

Event Time Altitude Azimuth Distance (km) Brightness Sun altitude
Exits shadow 11:04:41 41° 64° (ENE) 574 1.9 -22.9°
Drops below altitude 10° 11:06:53 10° 60° (ENE) 1,412 4.5 -22.5°
Sets 11:08:57 0° 59° (ENE) 2,269 5.8 -22.1°
